• In Deutschland
  • Länderverzeichnis
  • Für 7 Tage
  • Wassertemperatur
  • Satellitenkarten
  • Wetterkarte
  • Widgets
  • user-avatar
    Anmelden

    Stündliche Wetter Schwerin

    Heute, 20 Februar, Dienstag

    Zeit Temperatur Niederschläge Wind Luftdruck Luftfeuchtigkeit
    00:00 -1°C° 0 mm 2 m/S 760 mmHg 85%
    01:00 -2°C° 0 mm 2 m/S 760 mmHg 86%
    02:00 -2°C° 0 mm 2 m/S 760 mmHg 86%
    03:00 -2°C° 0 mm 2 m/S 760 mmHg 87%
    04:00 -2°C° 0 mm 2 m/S 760 mmHg 87%
    05:00 -3°C° 0 mm 2 m/S 761 mmHg 88%
    06:00 -3°C° 0 mm 2 m/S 761 mmHg 88%
    07:00 -3°C° 0 mm 2 m/S 761 mmHg 89%
    08:00 -2°C° 0 mm 3 m/S 761 mmHg 82%
    09:00 -1°C° 0 mm 3 m/S 761 mmHg 76%
    10:00 0°C° 0 mm 3 m/S 761 mmHg 70%
    11:00 +1°C° 0 mm 3 m/S 762 mmHg 66%
    12:00 +1°C° 0 mm 4 m/S 762 mmHg 63%
    13:00 +3°C° 0 mm 4 m/S 762 mmHg 59%
    14:00 +1°C° 0 mm 4 m/S 762 mmHg 60%
    15:00 +1°C° 0 mm 4 m/S 762 mmHg 62%
    16:00 +1°C° 0 mm 4 m/S 762 mmHg 63%
    17:00 +1°C° 0 mm 3 m/S 763 mmHg 69%
    18:00 -1°C° 0 mm 3 m/S 763 mmHg 75%
    19:00 -2°C° 0 mm 3 m/S 763 mmHg 81%
    20:00 -2°C° 0 mm 3 m/S 764 mmHg 82%
    21:00 -4°C° 0 mm 3 m/S 764 mmHg 83%
    22:00 -4°C° 0 mm 3 m/S 764 mmHg 85%
    23:00 -3°C° 0 mm 2 m/S 765 mmHg 85%

    Morgen, 21 Februar, Mittwoch

    Zeit Temperatur Niederschläge Wind Luftdruck Luftfeuchtigkeit
    00:00 -3°C° 0 mm 2 m/S 765 mmHg 85%
    01:00 -3°C° 0 mm 2 m/S 765 mmHg 86%
    02:00 -3°C° 0 mm 2 m/S 765 mmHg 86%
    03:00 -3°C° 0 mm 2 m/S 765 mmHg 86%
    04:00 -3°C° 0 mm 2 m/S 765 mmHg 86%
    05:00 -3°C° 0 mm 2 m/S 765 mmHg 86%
    06:00 -1°C° 0 mm 1 m/S 765 mmHg 85%
    07:00 -1°C° 0 mm 1 m/S 765 mmHg 85%
    08:00 0°C° 0 mm 1 m/S 766 mmHg 79%
    09:00 +1°C° 0 mm 1 m/S 766 mmHg 72%
    10:00 +1°C° 0 mm 2 m/S 766 mmHg 66%
    11:00 +2°C° 0 mm 2 m/S 766 mmHg 62%
    12:00 +2°C° 0 mm 2 m/S 766 mmHg 59%
    13:00 +3°C° 0 mm 2 m/S 766 mmHg 55%
    14:00 +3°C° 0 mm 2 m/S 765 mmHg 56%
    15:00 +3°C° 0 mm 2 m/S 765 mmHg 58%
    16:00 +3°C° 0 mm 2 m/S 765 mmHg 59%
    17:00 +2°C° 0 mm 2 m/S 765 mmHg 65%
    18:00 -1°C° 0 mm 2 m/S 765 mmHg 71%
    19:00 -2°C° 0 mm 2 m/S 765 mmHg 77%
    20:00 -2°C° 0 mm 2 m/S 766 mmHg 80%
    21:00 -3°C° 0 mm 2 m/S 766 mmHg 82%
    22:00 -3°C° 0 mm 2 m/S 766 mmHg 84%
    23:00 -1°C° 0 mm 1 m/S 766 mmHg 84%

    übermorgen, 22 Februar, Donnerstag

    Zeit Temperatur Niederschläge Wind Luftdruck Luftfeuchtigkeit
    00:00 -1°C° 0 mm 1 m/S 766 mmHg 84%
    01:00 -1°C° 0 mm 1 m/S 766 mmHg 84%
    02:00 -2°C° 0 mm 1 m/S 766 mmHg 84%
    03:00 -2°C° 0 mm 1 m/S 766 mmHg 83%
    04:00 -2°C° 0 mm 1 m/S 766 mmHg 82%
    05:00 -2°C° 0 mm 1 m/S 766 mmHg 81%
    06:00 -2°C° 0 mm 1 m/S 766 mmHg 81%
    07:00 -2°C° 0 mm 1 m/S 766 mmHg 80%
    08:00 -1°C° 0 mm 1 m/S 766 mmHg 74%
    09:00 +1°C° 0 mm 1 m/S 766 mmHg 68%
    10:00 +2°C° 0 mm 1 m/S 766 mmHg 63%
    11:00 +3°C° 0 mm 1 m/S 766 mmHg 61%
    12:00 +2°C° 0 mm 2 m/S 766 mmHg 59%
    13:00 +3°C° 0 mm 2 m/S 766 mmHg 57%
    14:00 +3°C° 0 mm 2 m/S 766 mmHg 60%
    15:00 +2°C° 0 mm 3 m/S 765 mmHg 62%
    16:00 +2°C° 0 mm 3 m/S 765 mmHg 65%
    17:00 0°C° 0 mm 3 m/S 765 mmHg 71%
    18:00 -1°C° 0 mm 3 m/S 765 mmHg 78%
    19:00 -2°C° 0 mm 3 m/S 766 mmHg 85%
    20:00 -4°C° 0 mm 3 m/S 766 mmHg 85%
    21:00 -4°C° 0 mm 3 m/S 766 mmHg 84%
    22:00 -5°C° 0 mm 3 m/S 766 mmHg 83%
    23:00 -5°C° 0 mm 3 m/S 766 mmHg 83%

    23 Februar, Freitag

    Zeit Temperatur Niederschläge Wind Luftdruck Luftfeuchtigkeit
    00:00 -5°C° 0 mm 3 m/S 766 mmHg 82%
    01:00 -5°C° 0 mm 3 m/S 766 mmHg 81%
    02:00 -5°C° 0 mm 3 m/S 766 mmHg 82%
    03:00 -5°C° 0 mm 3 m/S 766 mmHg 82%
    04:00 -5°C° 0 mm 3 m/S 766 mmHg 82%
    05:00 -5°C° 0 mm 3 m/S 766 mmHg 82%
    06:00 -5°C° 0 mm 3 m/S 767 mmHg 81%
    07:00 -5°C° 0 mm 3 m/S 767 mmHg 81%
    08:00 -4°C° 0 mm 3 m/S 767 mmHg 75%
    09:00 -2°C° 0 mm 3 m/S 767 mmHg 69%
    10:00 -1°C° 0 mm 3 m/S 768 mmHg 62%
    11:00 -1°C° 0 mm 3 m/S 768 mmHg 60%
    12:00 0°C° 0 mm 3 m/S 768 mmHg 58%
    13:00 +1°C° 0 mm 3 m/S 768 mmHg 56%
    14:00 +1°C° 0 mm 3 m/S 768 mmHg 58%
    15:00 +1°C° 0 mm 3 m/S 768 mmHg 59%
    16:00 0°C° 0 mm 4 m/S 767 mmHg 61%
    17:00 0°C° 0 mm 3 m/S 768 mmHg 67%
    18:00 -1°C° 0 mm 3 m/S 768 mmHg 73%
    19:00 -2°C° 0 mm 3 m/S 768 mmHg 78%
    20:00 -4°C° 0 mm 3 m/S 768 mmHg 81%
    21:00 -4°C° 0 mm 3 m/S 769 mmHg 83%
    22:00 -4°C° 0 mm 3 m/S 769 mmHg 85%
    23:00 -4°C° 0 mm 3 m/S 769 mmHg 85%

    24 Februar, Samstag

    Zeit Temperatur Niederschläge Wind Luftdruck Luftfeuchtigkeit
    00:00 -5°C° 0 mm 3 m/S 770 mmHg 85%
    01:00 -5°C° 0 mm 3 m/S 770 mmHg 86%
    02:00 -5°C° 0 mm 3 m/S 770 mmHg 85%
    03:00 -5°C° 0 mm 3 m/S 770 mmHg 84%
    04:00 -5°C° 0 mm 4 m/S 770 mmHg 83%
    05:00 -5°C° 0 mm 4 m/S 770 mmHg 80%
    06:00 -5°C° 0 mm 4 m/S 771 mmHg 77%
    07:00 -5°C° 0 mm 4 m/S 771 mmHg 74%
    08:00 -5°C° 0 mm 5 m/S 771 mmHg 67%
    09:00 -5°C° 0 mm 6 m/S 772 mmHg 61%
    10:00 -4°C° 0 mm 6 m/S 772 mmHg 54%
    11:00 -4°C° 0 mm 6 m/S 772 mmHg 51%
    12:00 -4°C° 0 mm 6 m/S 772 mmHg 48%
    13:00 -3°C° 0 mm 6 m/S 772 mmHg 46%
    14:00 -3°C° 0 mm 6 m/S 772 mmHg 47%
    15:00 -4°C° 0 mm 6 m/S 772 mmHg 48%
    16:00 -4°C° 0 mm 6 m/S 771 mmHg 49%
    17:00 -5°C° 0 mm 6 m/S 772 mmHg 53%
    18:00 -6°C° 0 mm 5 m/S 772 mmHg 58%
    19:00 -6°C° 0 mm 5 m/S 772 mmHg 62%
    20:00 -7°C° 0 mm 5 m/S 772 mmHg 64%
    21:00 -7°C° 0 mm 5 m/S 772 mmHg 65%
    22:00 -7°C° 0 mm 5 m/S 772 mmHg 66%
    23:00 -7°C° 0 mm 4 m/S 772 mmHg 67%

    25 Februar, Sonntag

    Zeit Temperatur Niederschläge Wind Luftdruck Luftfeuchtigkeit
    00:00 -7°C° 0 mm 4 m/S 772 mmHg 67%
    01:00 -7°C° 0 mm 4 m/S 772 mmHg 68%
    02:00 -7°C° 0 mm 4 m/S 772 mmHg 68%
    03:00 -7°C° 0 mm 4 m/S 771 mmHg 69%
    04:00 -7°C° 0 mm 4 m/S 771 mmHg 69%
    05:00 -8°C° 0,1 mm 4 m/S 771 mmHg 71%
    06:00 -8°C° 0,1 mm 4 m/S 771 mmHg 72%
    07:00 -8°C° 0,1 mm 4 m/S 771 mmHg 73%
    08:00 -7°C° 0,1 mm 4 m/S 771 mmHg 68%
    09:00 -7°C° 0,1 mm 5 m/S 771 mmHg 64%
    10:00 -6°C° 0,1 mm 6 m/S 771 mmHg 59%
    11:00 -6°C° 0,1 mm 6 m/S 771 mmHg 58%
    12:00 -5°C° 0,1 mm 6 m/S 771 mmHg 56%
    13:00 -5°C° 0,1 mm 6 m/S 771 mmHg 54%
    14:00 -6°C° 0,1 mm 7 m/S 770 mmHg 55%
    15:00 -7°C° 0,1 mm 7 m/S 770 mmHg 57%
    16:00 -7°C° 0,1 mm 7 m/S 770 mmHg 58%
    17:00 -7°C° 0,1 mm 7 m/S 770 mmHg 62%
    18:00 -8°C° 0,1 mm 6 m/S 770 mmHg 65%
    19:00 -9°C° 0,1 mm 6 m/S 771 mmHg 68%
    20:00 -9°C° 0,1 mm 6 m/S 771 mmHg 69%
    21:00 -9°C° 0,1 mm 6 m/S 771 mmHg 70%
    22:00 -9°C° 0,1 mm 6 m/S 771 mmHg 71%
    23:00 -9°C° 0,1 mm 6 m/S 771 mmHg 71%
    Mehr zeigen